This is the latest recevied weather packets stored in our database for station/object N1ORT. If no packets are shown the sender has not sent any weather packets the latest 10 day(s).
| Time | Temp. | Humidity | Pressure | Rain* | Wind** | Luminosity | Snow |
|---|---|---|---|---|---|---|---|
| 1787842077 | 22.22° C | 88% | 1017.1 hPa | 0 mm | - | 208 W/m² | - |
| 1787841768 | 22.22° C | 88% | 1017.1 hPa | 0 mm | - | 296 W/m² | - |
| 1787841463 | 22.78° C | 87% | 1016.9 hPa | 0 mm | - | 191 W/m² | - |
| 1787841162 | 23.33° C | 85% | 1017 hPa | 0 mm | - | 161 W/m² | - |
| 1787840857 | 23.33° C | 86% | 1016.9 hPa | 0 mm | - | 783 W/m² | - |
| 1787840552 | 22.78° C | 87% | 1016.8 hPa | 0 mm | - | 338 W/m² | - |
| 1787840247 | 23.33° C | 85% | 1016.7 hPa | 0 mm | - | 321 W/m² | - |
| 1787839947 | 23.89° C | 85% | 1016.8 hPa | 0 mm | - | 475 W/m² | - |
| 1787839642 | 23.33° C | 87% | 1016.5 hPa | 0 mm | - | 441 W/m² | - |
| 1787839337 | 23.33° C | 85% | 1016.4 hPa | 0 mm | - | 557 W/m² | - |
| 1787839036 | 22.78° C | 86% | 1016.3 hPa | 0 mm | - | 370 W/m² | - |
| 1787838735 | 23.33° C | 85% | 1016.4 hPa | 0 mm | - | 577 W/m² | - |
| 1787838435 | 22.78° C | 86% | 1016.3 hPa | 0 mm | - | 285 W/m² | - |
| 1787838134 | 22.78° C | 86% | 1016.3 hPa | 0 mm | - | 294 W/m² | - |
| 1787837829 | 23.33° C | 86% | 1016.2 hPa | 0 mm | - | 566 W/m² | - |
| 1787837523 | 22.78° C | 87% | 1016.4 hPa | 0 mm | - | 485 W/m² | - |
| 1787837223 | 22.78° C | 87% | 1016.3 hPa | 0 mm | - | 505 W/m² | - |
| 1787836922 | 22.22° C | 87% | 1016.3 hPa | 0 mm | - | 472 W/m² | - |
| 1787836617 | 22.78° C | 86% | 1016.3 hPa | 0 mm | - | 455 W/m² | - |
| 1787836317 | 22.22° C | 86% | 1016.2 hPa | 0 mm | - | 499 W/m² | - |
| 1787836013 | 22.22° C | 87% | 1016.2 hPa | 0 mm | - | 415 W/m² | - |
| 1787835708 | 22.22° C | 87% | 1016.4 hPa | 0 mm | - | 471 W/m² | - |
| 1787835403 | 22.22° C | 88% | 1016.3 hPa | 0 mm | - | 392 W/m² | - |
| 1787835098 | 21.67° C | 88% | 1016.4 hPa | 0 mm | - | 355 W/m² | - |
| 1787834797 | 21.67° C | 89% | 1016.4 hPa | 0 mm | - | 346 W/m² | - |
* Rain latest hour (hover to see other rain measurements)
** Current wind speed in m/s (hover to see current wind gust speed)